{"data":{"norad_id":61863,"intl_designator":"2024-202U","name":"STARLINK-32324","alt_names":[],"object_type":"PAYLOAD","status":"ACTIVE","operator":null,"country":"US","launch_date":"2024-11-07","launch_site_code":"AFETR","launch_vehicle":null,"mission":null,"orbit_class":"UNKNOWN","rcs_meters":null,"size_class":null,"mass_kg":null,"dimensions":null,"purposes":["comms"],"wikipedia_slug":null,"has_3d_model":false,"image_url":null,"decayed_at":null,"tle_current":{"epoch":"2026-09-21T06:01:10.360704Z","epoch_age_seconds":123625,"freshness":"FRESH","line1":"1 61863U 24202U   26264.25081436 -.00000106  00000+0  56697-5 0  9998","line2":"2 61863  43.0026 213.7843 0000984 278.4306  81.6434 15.27575854105236","mean_motion":15.27575854,"eccentricity":9.84e-5,"inclination_deg":43.0026,"raan_deg":213.7843,"arg_perigee_deg":278.4306,"mean_anomaly_deg":81.6434,"bstar":5.6697e-6,"rev_number":10523,"period_min":94.267004563428,"perigee_km":482.3863687498,"apogee_km":483.7366526167,"semimajor_km":6861.1985106832,"source":"CELESTRAK","updated_at":"2026-09-22T09:00:49.443336Z"}}}